This is the latest recevied weather packets stored in our database for station/object ZR6G-15. If no packets are shown the sender has not sent any weather packets the latest 10 day(s).
| Time | Temp. | Humidity | Pressure | Rain* | Wind** | Luminosity | Snow |
|---|---|---|---|---|---|---|---|
| 1777300582 | 20.56° C | 30% | 1008.2 hPa | - | - | - | - |
| 1777299978 | 20.56° C | 29% | 1008.5 hPa | - | - | - | - |
| 1777299374 | 20.56° C | 29% | 1008.4 hPa | - | - | - | - |
| 1777298769 | 20.56° C | 26% | 1008.2 hPa | - | - | - | - |
| 1777298165 | 21.67° C | 27% | 1007.8 hPa | - | - | - | - |
| 1777297560 | 21.67° C | 26% | 1007.4 hPa | - | - | - | - |
| 1777296955 | 21.67° C | 24% | 1007.2 hPa | - | - | - | - |
| 1777296351 | 22.78° C | 23% | 1007.2 hPa | - | - | - | - |
| 1777295747 | 22.78° C | 23% | 1007 hPa | - | - | - | - |
| 1777295142 | 22.78° C | 21% | 1006.9 hPa | - | - | - | - |
| 1777294537 | 22.78° C | 21% | 1006.8 hPa | - | - | - | - |
| 1777293933 | 22.78° C | 21% | 1006.7 hPa | - | - | - | - |
| 1777293328 | 22.78° C | 19% | 1006.9 hPa | - | - | - | - |
| 1777292724 | 22.78° C | 24% | 1007 hPa | - | - | - | - |
| 1777292116 | 22.78° C | 23% | 1007 hPa | - | - | - | - |
| 1777291511 | 22.78° C | 23% | 1007.3 hPa | - | - | - | - |
| 1777290907 | 22.78° C | 27% | 1007.7 hPa | - | - | - | - |
| 1777290302 | 21.67° C | 25% | 1007.9 hPa | - | - | - | - |
| 1777289697 | 22.78° C | 28% | 1008.3 hPa | - | - | - | - |
| 1777289092 | 22.78° C | 25% | 1008 hPa | - | - | - | - |
| 1777288487 | 22.78° C | 24% | 1007.6 hPa | - | - | - | - |
| 1777287883 | 23.89° C | 24% | 1007.8 hPa | - | - | - | - |
| 1777287278 | 22.78° C | 21% | 1008.3 hPa | - | - | - | - |
| 1777286674 | 22.78° C | 24% | 1008.8 hPa | - | - | - | - |
| 1777286069 | 22.78° C | 24% | 1008.8 hPa | - | - | - | - |
* Rain since midnight (hover to see other rain measurements)
** Current wind speed in m/s (hover to see current wind gust speed)